Helicity
43 85 61 97 17 48 52 52 -5 44 44 29 34 20 64 75 31 35 68 55 234 203 156 129 111 91 83 77 80 86 76 81 85 78 69 57 47 39 39 35 26 22 22 28 32 28 26 30 23
61 89 85 60 11 64 51 16 75 96 98 56 16 -4 73 64 52 21 46 33 190 138 161 135 118 99 94 89 86 88 85 86 95 91 78 66 57 47 44 40 31 27 28 28 35 38 36 30 17
83 80 78 17 20 39 42 88 67 90 29 19 19 52 47 81 68 37 63 53 161 129 136 139 131 118 109 107 99 96 96 95 99 96 86 75 66 55 48 43 35 28 32 35 33 39 39 27 24
100 69 53 2 36 118 138 54 10 49 36 15 14 138 104 82 63 54 52 52 142 131 145 159 147 140 132 124 112 107 104 105 102 100 95 84 75 63 54 45 37 34 33 38 37 37 37 33 20
23 59 37 76 77 93 112 110 69 18 40 32 -5 128 128 84 87 76 38 94 153 154 223 172 172 142 142 141 130 121 107 106 103 100 96 89 81 73 62 50 42 36 40 42 46 40 35 29 18
27 26 43 -50 33 160 212 146 135 64 45 107 17 65 126 150 115 72 61 114 165 235 185 148 181 151 138 139 143 127 117 110 102 101 96 96 87 77 67 55 46 44 47 44 41 42 34 27 17
35 84 15 63 64 108 199 98 150 123 59 151 108 27 134 146 86 68 82 124 173 172 180 147 162 162 143 144 138 125 115 112 104 98 99 99 87 77 72 62 46 49 50 49 42 41 35 24 18
51 93 56 16 -6 229 157 99 72 111 187 65 42 115 181 124 70 78 70 81 98 168 196 131 168 158 148 143 150 144 124 112 105 99 104 102 91 88 72 65 52 54 64 64 56 44 38 32 19
37 40 21 -17 12 135 89 56 42 55 70 65 71 120 136 64 62 74 64 83 128 118 151 118 160 158 148 147 150 157 144 128 121 116 107 108 81 79 79 63 68 69 75 68 54 47 38 33 14
28 36 28 136 133 159 87 90 133 46 28 42 56 80 44 39 57 71 96 95 189 137 136 108 124 137 131 112 168 142 143 131 118 107 111 90 64 83 65 77 100 89 74 60 48 43 38 40 38
39 30 48 72 118 160 160 84 58 62 55 59 153 164 99 85 58 72 28 25 227 265 147 118 124 106 89 103 138 102 126 116 107 104 123 81 76 105 110 118 87 85 73 84 67 51 40 26 41
66 62 73 91 32 97 96 114 77 95 71 107 137 121 69 49 65 51 65 16 41 233 228 181 119 117 50 127 120 46 91 51 78 78 102 111 104 107 103 121 101 86 45 52 41 31 45 35 44
32 87 62 93 65 52 64 55 54 57 38 101 73 99 64 117 79 54 24 48 15 167 236 279 226 125 49 73 116 53 65 181 216 192 162 151 192 232 282 287 205 123 24 220 1 10 24 44 111
127 147 123 49 40 27 33 43 40 26 52 148 82 75 87 85 103 70 52 60 96 98 268 324 347 177 85 98 146 142 229 366 414 324 263 304 300 318 263 204 91 131 173 111 88 54 94 105 143
76 66 52 32 25 31 84 43 30 45 117 41 29 92 110 98 88 196 154 214 93 97 189 312 391 195 143 103 176 175 342 360 316 278 249 243 217 140 219 259 64 102 352 232 96 9 63 97 133
66 40 56 26 91 142 96 49 26 97 175 106 70 77 121 95 144 285 103 142 165 44 186 324 329 174 200 214 266 298 284 237 212 214 208 223 138 141 164 170 134 89 144 141 80 -16 54 192 165
51 70 30 -2 113 142 74 74 59 94 96 92 87 117 103 248 146 228 69 50 75 106 254 367 286 233 278 313 266 249 211 194 178 171 161 139 135 115 137 205 168 246 215 174 41 8 97 84 111
88 32 21 -3 80 100 69 55 55 48 49 73 160 157 170 158 158 201 132 109 114 91 291 311 313 356 293 298 258 248 250 241 174 137 125 104 105 146 120 107 123 142 141 125 69 90 148 161 120
64 98 120 76 62 75 59 95 87 44 27 101 172 134 86 137 224 177 116 176 238 272 289 312 302 253 280 305 274 282 250 194 153 104 97 80 128 133 111 119 127 102 78 82 102 68 74 167 128
67 91 93 100 92 75 114 165 128 69 22 126 122 180 85 97 263 130 100 158 167 255 276 211 212 219 249 257 256 241 226 133 104 108 112 98 79 94 127 181 159 160 148 169 187 171 159 129 106
124 106 82 84 109 136 128 94 65 -1 6 184 264 128 120 129 272 120 95 102 105 120 128 142 153 164 195 240 236 209 138 141 125 115 115 93 70 130 120 134 115 111 120 113 133 113 156 159 89
104 60 39 67 140 124 115 84 101 14 179 255 199 164 196 273 215 120 88 79 67 61 66 79 100 133 151 146 161 139 140 108 100 77 67 77 96 70 87 95 88 85 83 72 81 82 111 135 120
119 174 255 201 129 106 81 146 131 50 177 255 198 164 290 191 135 108 109 99 66 40 44 57 71 95 80 61 73 75 85 116 85 58 106 110 74 69 77 88 87 87 69 70 67 119 101 105 128
165 160 141 116 114 129 49 124 114 76 144 287 229 228 282 206 138 114 114 89 60 43 42 48 66 61 46 41 65 39 105 71 72 116 114 98 90 84 90 100 90 85 77 84 75 83 99 115 151
196 230 221 187 175 168 117 155 144 56 17 272 297 252 238 191 139 117 113 82 73 62 62 50 49 40 33 67 80 50 68 122 137 124 77 96 117 127 118 101 72 75 72 87 84 114 112 124 124
236 291 328 281 137 67 45 157 88 75 112 225 287 292 251 229 130 108 102 99 70 70 60 44 48 75 73 93 74 94 98 88 98 87 40 104 106 117 169 80 72 79 137 109 96 90 98 95 127
183 184 138 165 174 211 286 225 137 143 264 292 308 391 276 214 111 89 130 101 92 78 53 16 48 116 114 95 88 96 81 68 73 140 169 164 171 219 214 155 129 122 120 105 101 77 116 148 119
90 116 183 239 236 234 303 199 212 193 326 332 331 383 246 197 120 141 117 115 113 96 84 41 66 133 111 96 76 90 99 79 118 185 162 118 182 140 209 140 113 114 127 125 109 97 109 152 120
326 218 280 256 300 275 240 246 150 48 312 298 240 280 263 208 136 143 96 135 138 166 162 100 82 129 165 157 120 110 111 111 136 162 160 143 171 169 143 126 118 124 114 136 128 108 95 185 145
183 157 204 386 322 185 265 254 116 109 132 109 150 176 198 149 111 107 90 153 174 212 234 181 142 142 162 184 156 134 151 171 215 184 180 205 193 181 155 138 137 119 101 121 148 145 129 156 191
Wind_Speed
38 38 38 38 34 28 21 25 32 32 32 37 39 40 43 45 46 36 35 35 36 33 33 33 36 37 37 36 34 34 33 32 31 31 32 34 35 35 36 38 39 40 41 42 43 43 43 44 44
38 39 41 39 32 25 27 27 29 33 31 33 37 36 42 44 47 41 37 33 35 34 31 31 32 33 33 33 32 31 30 29 29 28 28 30 31 31 32 33 35 36 37 38 39 39 40 41 41
39 41 42 18 16 5 19 31 29 29 26 29 33 34 36 41 42 38 36 33 35 33 30 28 30 30 30 30 29 29 27 26 26 26 25 26 26 27 28 29 31 32 32 33 34 35 35 36 37
37 28 43 33 27 25 27 31 29 25 27 34 38 30 34 38 34 35 33 32 32 31 29 29 27 27 27 27 26 26 25 24 23 22 21 22 22 23 24 25 26 27 28 29 30 30 30 31 31
32 35 46 49 24 22 25 33 36 25 28 33 35 33 34 35 35 32 30 29 28 27 26 26 24 22 22 23 23 23 22 21 20 19 18 18 19 20 21 22 23 24 25 25 25 26 26 26 27
30 20 48 19 2 15 25 34 34 31 29 35 30 33 32 35 36 30 25 25 23 23 22 20 19 18 17 17 18 18 18 17 17 16 16 16 17 18 19 20 21 22 23 24 24 24 25 25 25
38 45 53 62 27 19 21 30 32 35 31 33 41 31 28 35 35 28 24 23 21 22 20 17 14 14 14 15 15 15 14 14 14 14 14 15 16 17 18 18 19 20 21 22 23 24 25 26 26
44 49 57 58 48 21 24 27 27 32 34 33 36 32 31 33 32 28 24 21 19 19 21 17 12 11 11 12 12 12 12 13 13 12 13 14 16 16 17 19 19 21 19 20 21 22 25 26 30
38 35 36 46 51 18 24 26 25 30 31 30 32 32 29 32 29 24 22 17 17 18 18 14 10 8 8 9 10 11 10 11 12 12 12 13 15 17 18 19 20 21 23 20 21 22 25 31 34
27 33 44 39 33 23 27 29 35 35 24 29 29 26 26 30 27 24 17 13 10 13 13 11 9 7 6 8 9 9 10 9 9 9 10 11 12 16 20 21 22 26 24 26 24 26 26 27 32
38 38 41 33 34 36 37 37 37 38 36 42 32 40 39 39 34 26 25 19 4 4 9 8 8 7 5 7 10 9 8 7 7 5 7 10 15 21 26 27 27 32 27 31 27 29 32 32 30
41 47 42 42 35 39 39 41 44 44 44 45 38 37 36 32 37 29 23 24 20 2 5 9 9 8 4 8 9 7 6 6 6 7 8 14 18 20 26 33 44 59 67 36 27 19 23 35 33
41 45 38 41 41 41 43 43 45 42 40 32 33 36 34 38 40 41 30 21 21 4 2 8 9 8 3 10 9 9 10 11 15 16 17 15 20 25 37 41 42 46 78 63 54 33 27 28 33
42 43 47 46 39 41 43 44 38 43 28 28 28 34 35 37 42 44 38 27 26 18 2 6 7 9 8 9 12 16 21 21 20 22 21 22 22 22 25 34 43 45 49 55 60 50 40 33 31
44 49 50 41 38 39 39 50 38 30 25 29 30 30 32 43 40 41 48 46 26 22 4 6 7 10 10 9 14 15 18 22 23 23 22 21 19 17 17 23 33 28 26 24 37 45 40 27 31
41 41 48 49 27 27 32 56 66 14 21 33 37 32 38 37 39 39 45 39 35 14 5 8 7 10 12 14 18 19 17 18 19 21 24 24 20 21 31 35 29 28 24 22 16 18 26 25 26
36 44 39 40 21 28 29 44 39 19 26 35 42 44 40 38 38 36 38 32 27 23 12 11 10 11 13 14 15 16 17 17 19 23 24 23 24 25 27 32 31 34 31 29 25 22 26 21 21
44 40 45 43 25 33 44 56 46 45 45 44 40 41 36 30 28 34 36 36 32 16 12 9 11 12 12 13 12 14 17 20 22 22 20 21 25 28 27 30 30 29 28 25 26 28 28 20 19
58 62 57 58 51 58 42 51 60 60 54 43 39 35 26 26 22 30 32 33 27 20 13 11 10 10 10 9 11 14 16 17 19 21 21 23 26 28 29 30 30 31 29 27 27 28 24 24 19
54 59 58 65 65 60 66 63 65 65 54 37 32 28 26 19 20 29 28 25 23 19 17 14 11 10 9 8 10 14 14 17 20 22 24 25 25 26 29 32 30 32 29 30 31 32 27 29 16
52 54 59 66 70 56 57 71 64 55 43 22 23 22 17 18 21 24 23 20 18 17 15 14 13 12 10 10 12 13 16 19 22 22 22 23 24 30 31 31 30 30 30 32 31 32 36 37 33
59 51 56 62 65 75 54 98 72 60 21 22 17 18 14 17 20 16 17 18 18 18 18 17 15 13 10 10 10 9 15 19 23 18 21 21 24 26 27 28 28 28 30 33 33 28 30 30 32
59 54 59 58 64 74 62 71 56 47 30 22 15 9 8 8 9 11 13 16 18 18 17 16 14 12 10 10 10 9 17 21 16 16 19 22 23 23 25 27 29 29 28 28 29 30 31 30 35
50 53 55 58 62 72 60 56 64 46 31 21 13 3 6 6 7 8 11 13 16 17 17 16 14 11 11 11 11 10 19 17 18 18 20 19 21 24 26 27 28 29 29 30 31 34 37 39 40
47 45 63 68 60 74 55 51 47 40 44 23 16 4 1 2 2 3 6 8 12 13 15 15 13 11 10 11 12 12 15 17 18 17 17 17 20 22 23 25 28 31 30 30 33 34 34 33 35
53 51 63 76 70 76 55 55 46 38 20 8 11 7 3 2 2 4 4 5 8 10 11 11 9 9 9 11 12 14 13 15 17 16 16 15 18 18 15 21 24 29 30 30 33 33 32 33 36
50 61 54 77 82 77 58 51 37 24 16 7 8 8 8 7 7 6 3 3 4 5 5 5 6 10 13 14 14 13 13 14 17 16 25 25 24 23 18 23 27 30 32 30 31 35 34 35 37
61 45 59 61 71 74 62 53 51 28 22 16 13 11 12 11 10 7 5 3 2 1 3 5 8 9 13 15 12 13 16 18 21 22 25 24 23 26 23 27 30 30 31 35 39 42 44 43 46
56 64 57 56 61 64 68 60 50 46 26 24 18 12 12 14 15 12 8 5 5 5 5 8 13 16 15 16 19 19 20 22 24 27 28 27 28 28 29 30 30 33 38 38 40 43 45 40 40
59 62 61 64 58 55 58 44 21 22 11 16 15 13 12 15 16 15 12 10 10 10 12 14 18 21 25 23 23 26 28 31 30 29 31 31 33 34 34 36 35 39 41 42 42 41 38 38 41
Wind_Direction
236 208 195 204 164 132 162 46 28 36 40 19 9 7 21 8 8 36 49 42 67 76 90 87 87 87 88 90 94 96 95 93 91 86 81 80 76 70 62 57 57 57 57 59 59 60 62 62 62
244 228 204 219 168 174 285 352 17 6 11 20 24 13 21 21 28 51 38 63 71 76 91 90 90 88 86 87 93 95 95 93 93 90 85 81 77 70 62 58 55 56 54 55 57 59 63 65 65
230 214 233 259 111 85 39 336 2 12 34 31 16 22 9 13 15 30 39 63 73 74 90 91 93 89 86 86 92 97 96 94 94 92 87 81 74 69 62 57 53 50 50 49 50 53 58 63 66
250 275 248 303 170 353 355 345 9 22 11 350 357 25 27 3 20 26 49 70 70 77 87 97 94 91 88 87 90 95 95 94 94 91 85 79 71 63 56 51 46 42 41 35 38 45 50 53 54
283 283 261 221 182 359 351 331 329 6 6 1 357 28 24 23 27 38 56 67 66 67 78 93 101 94 86 84 87 90 95 94 90 85 78 68 58 48 46 42 37 30 27 28 27 29 34 37 39
298 323 281 282 194 347 344 329 334 350 356 352 356 9 15 8 11 25 48 48 52 55 62 78 94 89 80 77 77 78 85 87 84 79 66 54 48 35 27 25 21 16 15 11 10 10 11 14 16
290 285 278 251 348 349 339 334 335 333 344 349 329 359 27 5 10 25 33 32 38 48 50 56 81 80 76 68 65 67 69 68 63 59 51 36 30 21 14 10 6 4 3 0 359 356 354 355 358
290 289 284 278 296 344 339 337 342 337 338 340 339 348 1 0 7 19 26 33 34 22 29 42 75 76 67 58 55 58 54 46 42 40 34 20 12 6 0 350 350 343 350 348 347 347 342 345 338
295 300 300 300 288 335 351 341 354 340 336 342 341 340 355 355 2 13 17 22 25 21 25 45 68 77 72 55 45 40 38 32 27 23 18 10 0 353 345 337 332 327 324 330 332 334 334 330 328
293 292 302 313 321 346 342 331 331 330 341 338 342 360 358 356 354 354 1 3 14 17 18 37 53 64 68 50 39 24 20 19 21 19 10 360 351 346 338 330 324 311 311 310 316 322 328 333 330
291 282 310 318 314 317 319 320 321 322 322 324 330 326 334 335 339 344 340 338 318 16 32 44 49 58 63 32 44 20 22 22 33 29 16 1 344 342 338 335 327 312 309 301 301 308 311 320 330
289 287 299 304 311 310 312 313 311 312 312 318 329 331 335 342 341 342 341 339 344 30 43 52 42 22 28 31 41 40 52 63 66 59 29 4 351 347 337 334 329 319 310 291 291 315 322 317 330
287 289 302 302 302 305 307 308 308 311 314 325 328 332 334 336 337 336 339 344 346 350 41 62 40 24 47 358 29 36 32 51 38 28 8 9 3 2 353 341 340 331 332 323 277 318 329 335 337
302 295 294 298 302 302 303 306 311 315 317 325 325 329 332 334 334 334 337 341 336 341 22 66 54 45 28 7 13 10 23 17 9 10 21 19 18 21 16 343 331 349 346 322 304 311 325 337 342
294 293 296 296 296 298 307 303 302 301 321 323 323 324 330 327 333 334 330 329 335 341 39 80 69 39 36 18 11 11 3 14 11 16 24 32 35 36 25 27 335 343 348 334 331 325 314 352 347
294 294 296 296 267 299 312 306 309 303 319 320 319 325 328 329 332 342 334 331 330 347 54 79 57 41 40 22 5 11 11 16 23 19 14 20 30 20 4 6 15 15 28 32 73 41 356 354 11
286 292 293 295 289 299 302 306 328 331 318 316 315 320 325 328 330 344 342 345 339 340 64 66 56 44 27 21 13 15 23 17 11 6 5 12 10 10 14 15 15 11 22 32 40 24 14 23 19
283 283 289 291 290 296 298 298 306 308 309 310 316 320 323 329 334 346 342 343 343 352 53 47 36 35 34 27 33 21 10 4 8 7 15 20 17 16 20 20 23 21 20 21 12 7 0 15 24
281 287 289 285 296 300 304 299 302 306 304 303 311 314 320 329 346 351 346 344 360 20 33 22 46 47 48 44 23 13 9 10 16 19 22 20 19 17 18 19 19 14 10 7 358 358 4 360 354
276 280 282 286 292 299 299 301 305 304 300 296 305 312 316 326 344 345 348 351 356 360 1 11 19 26 16 16 11 2 17 13 17 19 17 17 18 15 11 11 9 2 3 360 353 347 347 341 335
274 277 284 288 293 302 303 300 303 301 291 300 310 313 319 324 337 348 358 6 11 10 11 25 38 38 29 34 19 27 15 12 4 7 14 14 14 7 7 10 9 8 7 356 352 344 336 323 315
272 279 285 290 294 293 302 295 308 305 272 284 297 305 313 331 347 2 16 27 32 29 31 37 40 38 43 42 29 39 354 348 351 9 7 11 10 13 15 14 14 7 2 353 351 354 345 338 324
273 284 291 294 294 297 296 297 300 300 286 278 277 293 329 351 7 26 38 38 31 31 33 36 41 41 51 49 39 33 353 355 18 17 14 13 8 10 6 5 7 6 9 8 1 356 350 343 336
277 283 290 294 297 290 294 292 296 287 279 259 250 256 325 354 34 39 38 37 34 37 41 46 45 46 51 50 42 29 354 358 7 5 4 4 1 354 354 355 356 359 2 360 355 349 343 339 333
267 276 287 292 287 292 298 289 283 297 300 225 214 203 327 94 53 59 61 45 41 50 54 60 57 56 28 16 12 14 10 11 2 3 2 3 354 350 349 349 351 352 358 359 354 349 345 343 338
260 264 278 285 287 292 292 285 292 310 295 198 199 214 220 215 177 145 102 64 66 69 73 66 64 54 32 13 16 10 17 5 357 358 349 352 348 340 349 352 352 350 354 354 352 349 347 343 338
264 256 273 283 283 289 291 293 307 304 302 235 232 220 233 216 189 176 135 107 86 92 84 59 35 6 352 356 6 3 357 350 343 348 344 344 349 1 350 342 340 341 343 346 345 341 339 339 337
257 274 269 271 278 279 283 284 284 280 262 254 239 220 229 217 204 203 211 195 162 216 351 344 340 346 339 337 354 352 346 337 333 335 331 331 336 332 334 331 331 333 336 336 334 332 330 331 328
259 256 267 271 267 280 284 289 288 277 240 249 231 217 214 208 202 206 212 227 251 277 292 309 320 330 327 330 335 337 332 326 323 320 321 322 326 327 327 326 329 331 328 328 330 329 328 326 327
254 255 252 263 265 260 279 291 333 327 251 249 245 239 230 215 211 214 231 240 255 272 281 292 306 312 317 326 324 325 322 320 317 315 315 318 319 320 322 323 326 326 325 324 323 324 327 323 321